User: anonymous   Login
Location: Nebula Knoll Observatory
(43.6666°N, 71.0000°W)
Time: 13:28:00
(UTC-04:00)
Language:

Cosmos 1782 - Orbit

View from above orbital plane
View from above orbital plane
View from above satellite
View from above satellite

Ground track
Ground track

The orbit data is extracted from the following two-line orbital elements,

1 16986U 86074A   15211.18955371  .00000625  00000-0  41761-4 0  9990
2 16986 082.5057 069.9750 0012020 162.3105 197.8543 15.05221765567300
Epoch (UTC): 30 July 2015 04:32:57
Eccentricity: 0.0012020
inclination: 82.5057°
perigee height: 542 km
apogee height: 559 km
right ascension of ascending node: 69.9750°
argument of perigee: 162.3105°
revolutions per day: 15.05221765
mean anomaly at epoch: 197.8543°
orbit number at epoch: 56730

The dashed part of the orbit path shows where the satellite is in the earth's shadow,  

DLR